Temperature
3 3 2 2 1 0 -1 -2 -2 -3 -3 -2 -2 -1 -1 -1 -1 -1 -1 -1 -1 -2 -2 -3 -3 -3 -4 -4 -4 -4 -4 -4 -4 -4 -4 -4 -3 -3
3 2 2 2 1 0 -1 -2 -3 -3 -4 -3 -3 -3 -2 -2 -2 -2 -2 -2 -2 -2 -3 -3 -4 -4 -4 -4 -4 -4 -4 -4 -4 -4 -4 -4 -4 -3
2 2 2 1 1 -0 -1 -2 -3 -4 -4 -4 -4 -4 -4 -4 -3 -3 -3 -3 -3 -3 -3 -3 -4 -4 -4 -5 -5 -5 -5 -5 -4 -4 -4 -4 -4 -4
2 2 1 1 1 -0 -1 -2 -3 -4 -4 -5 -5 -5 -5 -5 -4 -4 -4 -4 -3 -3 -3 -4 -4 -4 -5 -5 -5 -5 -5 -5 -5 -5 -5 -5 -5 -5
2 1 1 1 0 -0 -1 -2 -3 -4 -4 -5 -5 -5 -6 -6 -5 -5 -5 -4 -4 -4 -4 -4 -4 -5 -5 -5 -5 -5 -5 -5 -5 -5 -6 -6 -6 -5
1 1 1 0 -0 -0 -1 -2 -3 -4 -5 -5 -6 -6 -6 -6 -6 -6 -6 -5 -4 -4 -4 -4 -5 -5 -5 -5 -6 -6 -6 -6 -6 -6 -6 -6 -6 -6
1 1 0 -0 -1 -2 -2 -3 -3 -4 -5 -6 -6 -7 -7 -7 -7 -6 -6 -5 -5 -5 -5 -5 -5 -5 -5 -5 -5 -6 -6 -6 -7 -7 -7 -7 -7 -7
0 0 -0 -1 -2 -3 -3 -4 -4 -5 -5 -6 -7 -7 -7 -7 -7 -7 -7 -7 -6 -5 -5 -5 -5 -6 -5 -5 -5 -6 -6 -7 -7 -7 -7 -7 -7 -7
-1 -1 -1 -1 -2 -2 -3 -4 -4 -4 -5 -6 -6 -7 -7 -6 -7 -7 -7 -7 -6 -6 -6 -7 -6 -7 -6 -6 -6 -7 -7 -8 -8 -8 -8 -8 -8 -8
-1 -2 -2 -2 -3 -3 -3 -4 -4 -4 -5 -5 -6 -6 -6 -6 -6 -7 -7 -7 -7 -7 -7 -8 -7 -7 -6 -6 -7 -7 -8 -8 -8 -8 -8 -8 -8 -8
-2 -2 -3 -3 -3 -4 -5 -5 -5 -5 -5 -6 -6 -6 -6 -6 -6 -7 -7 -7 -8 -7 -7 -8 -7 -7 -7 -7 -7 -7 -8 -8 -8 -9 -9 -9 -9 -9
-2 -3 -3 -3 -4 -4 -5 -5 -6 -6 -6 -6 -6 -6 -6 -6 -6 -6 -6 -7 -8 -8 -7 -7 -8 -8 -8 -8 -8 -8 -8 -8 -9 -9 -10 -10 -10 -10
-3 -3 -3 -4 -4 -5 -5 -5 -5 -6 -6 -6 -7 -7 -6 -6 -6 -6 -6 -7 -7 -8 -7 -8 -8 -8 -9 -9 -9 -9 -9 -9 -10 -10 -10 -10 -10 -10
-4 -4 -4 -4 -5 -5 -5 -5 -5 -6 -6 -7 -7 -7 -7 -6 -6 -6 -7 -7 -7 -7 -7 -8 -8 -9 -10 -10 -10 -10 -10 -10 -11 -11 -11 -10 -11 -11
-4 -5 -5 -5 -5 -5 -5 -5 -5 -5 -6 -6 -7 -6 -6 -6 -6 -7 -7 -7 -7 -8 -8 -8 -9 -9 -10 -11 -11 -11 -11 -11 -11 -11 -11 -11 -11 -11
-4 -5 -5 -5 -5 -5 -6 -6 -6 -6 -6 -6 -6 -6 -6 -6 -7 -7 -7 -7 -8 -8 -8 -8 -9 -10 -10 -11 -11 -12 -12 -12 -11 -11 -12 -11 -11 -11
-5 -5 -5 -5 -5 -6 -6 -6 -6 -6 -6 -6 -6 -6 -6 -7 -7 -7 -8 -8 -8 -8 -8 -8 -9 -10 -10 -11 -12 -12 -12 -12 -12 -12 -12 -12 -11 -11
-5 -5 -5 -5 -6 -6 -6 -6 -6 -6 -6 -6 -6 -6 -7 -7 -7 -8 -8 -8 -9 -9 -9 -9 -10 -10 -11 -11 -11 -11 -12 -12 -12 -12 -12 -12 -11 -11
-5 -5 -6 -6 -6 -6 -6 -6 -6 -6 -6 -6 -6 -7 -7 -7 -8 -8 -8 -9 -9 -9 -9 -10 -10 -11 -12 -12 -12 -11 -12 -12 -12 -12 -12 -12 -12 -11
-6 -6 -6 -6 -6 -6 -6 -6 -6 -6 -6 -7 -7 -7 -7 -8 -8 -9 -9 -9 -10 -10 -10 -10 -11 -11 -12 -12 -12 -12 -12 -12 -12 -12 -12 -12 -12 -11
-6 -6 -7 -7 -7 -7 -7 -7 -7 -7 -7 -7 -7 -7 -8 -8 -9 -9 -9 -10 -10 -11 -11 -11 -11 -11 -12 -13 -13 -12 -12 -12 -12 -12 -12 -12 -11 -11
-7 -7 -7 -7 -7 -7 -7 -7 -7 -7 -7 -7 -7 -8 -8 -9 -9 -9 -10 -10 -11 -11 -11 -11 -11 -12 -12 -13 -13 -13 -12 -11 -11 -11 -11 -11 -11 -10
-7 -7 -7 -7 -7 -7 -7 -7 -7 -7 -7 -8 -8 -8 -8 -9 -9 -10 -10 -10 -11 -11 -11 -12 -12 -12 -12 -13 -13 -13 -13 -12 -12 -11 -10 -9 -9 -9
Wind_Speed
20 20 19 16 14 13 12 11 12 15 15 9 9 9 14 18 23 21 20 26 28 27 27 27 27 28 28 28 29 29 29 29 29 30 30 31 31 32
17 18 20 16 14 13 14 12 13 16 18 6 9 7 10 13 22 21 21 26 28 28 27 27 28 28 29 29 29 30 30 31 31 31 31 32 32 33
18 19 22 17 16 14 13 13 15 14 21 12 7 8 10 10 11 14 17 18 19 26 28 28 29 29 29 30 30 31 31 31 31 32 32 33 33 34
20 20 21 17 19 16 15 16 16 16 18 19 8 9 12 11 10 9 11 16 16 24 28 29 29 29 30 30 30 31 31 31 31 32 33 33 34 35
19 20 20 18 20 17 17 17 15 16 15 17 14 9 9 9 9 10 12 9 14 21 26 28 29 30 30 30 30 30 30 31 31 32 33 34 35 36
17 18 19 19 20 19 18 18 16 15 14 15 14 10 10 8 8 11 12 10 12 14 19 22 25 28 29 29 29 30 30 31 32 33 34 35 35 36
16 17 18 22 26 22 17 14 14 15 14 14 15 12 12 9 10 10 13 10 10 10 10 12 12 12 15 25 27 29 30 31 32 33 34 35 36 37
16 16 17 22 27 32 33 30 24 18 17 16 15 16 14 14 12 11 11 10 9 7 10 12 11 12 11 12 24 29 30 32 32 33 34 35 36 37
14 14 14 15 22 16 24 31 30 34 30 20 19 18 15 14 13 14 14 12 12 7 6 10 9 12 10 16 27 30 31 32 33 34 35 35 36 37
13 14 14 14 15 16 14 16 17 18 21 20 18 16 15 12 13 15 14 13 10 10 9 12 11 12 12 10 25 29 31 32 33 34 34 35 35 36
11 12 13 14 22 26 17 16 16 16 24 30 27 24 27 28 21 13 13 12 12 11 10 9 10 11 11 11 16 27 30 31 31 32 33 33 34 34
9 10 18 19 21 24 16 15 17 14 12 13 18 21 19 21 28 19 14 13 9 8 8 8 7 5 7 7 9 10 14 23 29 31 32 33 33 22
9 8 9 20 22 23 21 15 19 15 10 12 12 12 11 11 11 12 11 11 11 9 6 6 6 7 9 9 8 9 11 12 14 19 25 31 32 27
9 8 10 19 21 23 19 19 24 21 10 11 12 12 11 11 10 11 11 11 11 12 8 8 7 9 11 15 13 7 8 9 12 15 14 23 27 31
9 15 17 20 20 16 20 22 19 13 11 12 12 12 10 9 8 8 8 9 10 10 10 9 10 10 11 14 16 14 13 13 13 13 14 14 15 15
11 14 18 18 14 13 13 12 9 9 10 10 10 9 7 8 8 8 7 7 7 8 9 11 11 12 13 15 15 16 14 12 10 12 14 16 16 16
9 6 5 6 6 6 7 7 7 7 9 8 8 8 8 8 8 7 7 6 7 8 7 6 8 10 13 14 15 16 15 15 15 14 15 17 16 15
12 7 7 7 7 7 7 7 7 8 7 7 7 8 8 8 7 6 6 7 8 8 8 6 6 7 8 11 17 17 15 15 14 14 15 17 18 15
9 6 6 7 7 7 7 7 7 7 7 7 7 7 7 7 6 6 6 7 8 8 8 6 6 8 13 15 9 14 14 14 14 15 15 16 18 17
5 6 6 6 6 6 7 7 6 6 6 6 6 6 6 6 6 6 7 7 8 8 8 7 7 10 13 15 13 11 17 16 15 16 16 15 17 22
5 5 5 6 5 6 6 6 6 6 6 6 6 6 6 6 6 7 7 11 10 8 9 9 10 15 11 10 13 13 10 17 21 18 17 16 17 16
5 5 5 5 5 5 5 5 5 5 6 6 6 6 6 6 7 7 7 7 7 8 10 9 8 8 8 12 15 17 16 14 17 25 27 25 17 12
5 5 4 4 4 4 4 5 5 5 5 5 5 5 5 5 6 6 6 7 7 8 9 9 7 7 9 12 14 15 18 17 14 14 15 22 28 32
Wind_Direction
233 231 233 235 230 228 223 218 234 259 261 215 215 216 220 223 230 233 231 240 246 250 253 257 260 262 264 266 268 270 273 275 276 276 277 277 278 278
233 233 234 235 232 228 226 223 224 240 260 223 211 198 209 221 229 229 228 238 244 248 253 256 260 262 264 265 267 268 270 271 273 274 275 276 277 277
234 234 236 231 232 229 225 225 227 229 250 251 203 202 203 217 231 226 226 234 240 248 254 258 261 262 263 264 265 266 268 270 272 274 275 276 277 278
238 236 237 233 232 229 227 228 229 227 238 252 227 209 214 216 222 226 232 236 234 247 254 258 259 260 261 262 264 265 267 269 271 274 275 276 277 278
239 237 237 232 233 230 228 229 230 230 231 243 243 220 221 220 225 233 237 237 241 248 254 257 258 259 260 262 263 265 267 269 272 274 275 276 276 277
242 239 237 232 233 231 230 229 227 228 228 235 241 231 227 216 218 233 241 235 241 244 250 253 255 258 259 261 263 266 269 272 273 274 275 275 275 275
247 243 240 239 237 236 234 229 223 227 227 232 238 235 229 220 222 223 237 240 239 237 243 248 251 253 257 260 264 268 270 271 272 273 274 274 274 274
251 248 245 248 248 247 245 239 227 222 224 228 233 232 229 224 225 225 230 234 244 223 231 243 236 243 244 244 256 262 267 269 271 272 273 274 274 274
249 249 249 244 246 240 246 248 244 236 227 222 230 229 226 221 220 226 228 228 236 225 212 248 242 248 246 251 260 264 268 270 272 274 274 274 274 274
250 246 246 245 238 236 233 236 238 240 238 233 229 227 223 219 215 223 229 236 242 240 229 253 253 254 254 248 261 265 269 271 273 274 274 275 275 275
256 248 247 245 248 248 241 236 237 237 242 240 238 232 227 227 222 222 226 231 242 239 222 235 251 257 258 256 258 264 268 271 273 274 275 276 277 275
264 251 256 255 253 252 244 236 237 232 225 236 243 247 241 237 233 223 218 226 237 241 216 217 235 241 264 249 247 253 261 267 271 273 274 275 276 275
270 260 250 261 261 257 250 238 238 230 217 222 228 232 234 235 234 232 223 224 236 242 205 195 227 237 256 270 263 255 253 257 264 268 271 273 272 271
270 261 256 263 262 260 256 246 241 237 224 220 224 225 225 226 226 225 225 226 232 240 229 212 237 250 265 274 277 264 246 252 260 266 265 269 270 269
272 272 271 269 266 263 258 252 244 233 222 220 221 222 219 216 210 213 220 226 232 238 238 227 236 249 254 266 275 277 278 273 263 262 264 264 264 264
282 278 278 275 269 261 256 253 241 230 223 223 221 216 203 201 207 207 215 218 236 248 237 230 232 240 254 261 268 274 274 272 265 264 268 269 265 260
274 260 251 252 246 243 241 237 227 226 229 218 214 207 202 203 209 203 208 212 229 249 254 240 234 239 247 258 268 269 272 272 271 272 272 272 267 261
289 263 249 238 236 238 236 229 221 219 218 212 208 203 201 204 209 205 206 217 236 247 253 253 255 268 266 257 247 262 266 270 272 271 271 274 274 268
287 270 256 240 233 230 228 223 219 211 202 202 204 202 200 203 209 215 217 226 239 247 251 247 247 262 276 281 255 246 262 273 276 274 271 268 272 275
262 263 260 247 232 226 223 219 211 200 199 204 204 201 200 204 214 221 223 229 243 252 257 249 243 249 260 275 281 272 265 267 273 274 274 272 271 274
265 260 258 247 233 225 219 211 203 200 200 199 201 200 200 204 218 224 228 245 252 255 259 260 253 264 269 274 278 277 266 267 268 271 275 276 277 277
267 264 259 246 231 219 209 202 199 201 198 199 201 201 202 207 220 225 231 242 249 254 261 267 266 268 263 270 276 284 288 284 276 274 271 265 266 267
272 265 257 245 224 205 198 196 197 199 197 198 201 203 204 213 220 226 234 243 253 259 266 274 273 265 265 269 277 282 287 292 292 289 280 271 265 262
Height
1423 1424 1423 1423 1425 1426 1427 1429 1432 1426 1420 1422 1426 1429 1434 1437 1439 1440 1440 1442 1443 1443 1444 1444 1444 1444 1444 1444 1444 1444 1444 1444 1443 1443 1442 1442 1442 1441
1411 1411 1410 1411 1413 1414 1415 1416 1417 1417 1411 1408 1414 1418 1422 1425 1428 1429 1430 1432 1432 1433 1434 1434 1434 1434 1434 1435 1435 1435 1434 1434 1434 1433 1433 1433 1432 1432
1399 1398 1397 1400 1400 1401 1403 1404 1405 1405 1401 1397 1404 1407 1410 1414 1417 1418 1419 1420 1421 1423 1423 1424 1424 1424 1424 1424 1425 1425 1425 1424 1424 1424 1423 1422 1422 1421
1387 1387 1385 1388 1387 1389 1390 1390 1391 1392 1391 1388 1391 1394 1397 1401 1405 1407 1408 1409 1410 1412 1412 1412 1412 1413 1413 1414 1414 1414 1414 1414 1414 1413 1412 1411 1410 1409
1375 1374 1373 1375 1374 1376 1377 1377 1378 1380 1380 1379 1379 1383 1386 1389 1392 1393 1395 1397 1398 1400 1401 1401 1401 1402 1403 1403 1403 1404 1403 1403 1402 1401 1400 1399 1398 1397
1362 1361 1361 1361 1361 1363 1364 1364 1366 1367 1368 1368 1369 1372 1374 1377 1380 1380 1382 1384 1386 1388 1389 1389 1389 1390 1391 1392 1392 1392 1392 1391 1390 1388 1387 1386 1384 1383
1349 1349 1348 1348 1348 1350 1350 1350 1353 1354 1356 1357 1358 1361 1363 1365 1366 1369 1371 1373 1374 1377 1377 1377 1378 1378 1379 1380 1380 1379 1379 1377 1376 1375 1373 1372 1371 1370
1337 1336 1336 1336 1336 1338 1339 1340 1341 1341 1343 1345 1346 1348 1349 1353 1357 1359 1361 1363 1363 1366 1366 1365 1367 1365 1366 1367 1367 1366 1365 1364 1363 1362 1360 1359 1357 1356
1326 1325 1324 1323 1324 1324 1325 1328 1330 1331 1331 1333 1333 1334 1339 1343 1347 1349 1351 1351 1352 1355 1356 1353 1355 1353 1354 1354 1355 1354 1353 1352 1350 1349 1347 1345 1343 1341
1316 1314 1313 1312 1313 1313 1313 1313 1315 1318 1321 1323 1321 1323 1329 1333 1336 1339 1341 1342 1343 1344 1346 1343 1343 1342 1343 1342 1342 1342 1340 1339 1337 1335 1333 1331 1329 1327
1306 1305 1303 1301 1302 1303 1303 1301 1302 1304 1308 1312 1314 1316 1319 1323 1326 1329 1331 1332 1331 1332 1335 1334 1332 1332 1330 1329 1329 1329 1327 1326 1324 1321 1319 1317 1314 1312
1296 1295 1294 1292 1292 1292 1292 1292 1291 1293 1297 1300 1303 1307 1310 1313 1317 1318 1320 1321 1321 1322 1323 1324 1323 1323 1318 1315 1315 1314 1313 1311 1309 1307 1304 1302 1300 1298
1287 1285 1284 1284 1283 1283 1283 1282 1282 1286 1288 1290 1293 1296 1299 1302 1305 1309 1311 1312 1312 1312 1314 1315 1314 1313 1310 1304 1302 1302 1300 1297 1295 1292 1289 1287 1285 1284
1279 1277 1276 1275 1274 1274 1274 1274 1276 1278 1280 1282 1284 1286 1289 1291 1295 1298 1301 1302 1303 1304 1305 1306 1304 1303 1300 1295 1291 1289 1287 1285 1282 1278 1275 1272 1270 1268
1272 1270 1268 1267 1266 1265 1265 1266 1268 1270 1272 1274 1275 1277 1280 1284 1287 1290 1291 1293 1294 1294 1295 1295 1295 1293 1291 1286 1281 1278 1275 1272 1270 1266 1262 1259 1255 1253
1265 1262 1260 1259 1258 1257 1258 1259 1260 1262 1264 1266 1268 1271 1274 1276 1279 1281 1283 1284 1284 1283 1285 1285 1284 1283 1279 1276 1272 1267 1264 1260 1256 1254 1250 1246 1242 1239
1257 1254 1252 1251 1251 1250 1251 1251 1253 1255 1257 1259 1262 1264 1266 1269 1271 1273 1274 1275 1274 1273 1274 1275 1274 1272 1269 1267 1261 1256 1253 1249 1246 1243 1239 1233 1228 1226
1251 1247 1245 1244 1244 1244 1244 1245 1247 1249 1251 1253 1255 1257 1259 1261 1263 1265 1266 1266 1266 1265 1265 1265 1264 1262 1258 1254 1252 1246 1242 1238 1235 1232 1228 1222 1214 1212
1244 1241 1239 1238 1237 1238 1239 1239 1241 1243 1245 1247 1249 1251 1253 1255 1256 1257 1258 1258 1257 1257 1256 1256 1255 1253 1249 1242 1238 1239 1234 1229 1225 1220 1216 1211 1203 1198
1237 1235 1233 1232 1232 1232 1233 1234 1236 1238 1240 1242 1243 1245 1247 1248 1249 1250 1250 1250 1250 1249 1248 1247 1246 1244 1240 1234 1227 1224 1225 1220 1215 1209 1204 1199 1193 1188
1231 1229 1228 1227 1227 1228 1228 1229 1231 1233 1235 1236 1238 1239 1241 1242 1242 1243 1243 1243 1242 1241 1239 1238 1237 1236 1232 1227 1219 1211 1210 1210 1205 1200 1194 1189 1182 1177
1226 1224 1223 1223 1223 1224 1225 1226 1227 1229 1230 1231 1233 1234 1235 1236 1236 1236 1236 1236 1235 1233 1231 1229 1228 1226 1223 1218 1211 1204 1198 1195 1192 1188 1184 1180 1176 1167
1222 1221 1220 1220 1220 1221 1221 1222 1224 1225 1226 1227 1228 1229 1229 1229 1230 1230 1229 1229 1228 1226 1224 1221 1219 1217 1213 1209 1203 1197 1191 1185 1180 1175 1169 1167 1163 1158